Find Starlink 33867

NORAD ID: 63795 Int'l Des: 2025-091 Owner: SPXS Country: US Constellation: starlink operational
LEOCIRCULAR

現在のビュー

3D地球を読み込み中...

About Starlink 33867

Starlink 33867 (NORAD 63795) is a starlink constellation satellite (v2 mini) launched May 2, 2025 by SPXS of US. It operates in LEO, CIRCULAR orbit with a mass of 575.00 kg.

Starlink 33867について

説明を読み込み中...

次回通過

Passes for default location (London). Set your location on the main map for personalized predictions.

高度履歴

Loading altitude history...

軌道要素

1 63795U 25091W 26170.38795802 .00014543 00000-0 53683-3 0 9990
2 63795 42.9974 198.3536 0001292 269.9817 90.0886 15.27586918 64450
Epoch: Jun 19, 2026 • Age: 22 hours

現在のステータス

高度 486.9 km
速度 7.63 km/s
衛星直下点 42.70°N, 110.21°W
打ち上げ日 May 2, 2025
運用期間 1.1 years
タイプ internet

技術仕様

分類 Payload
質量 575.00 kg
乾燥質量 530.00 kg
総質量 575.00 kg
長さ 0.30 m
直径 4.10 m
スパン 29.00 m
形状 Box + pan
製造者 SPXS
バスタイプ Starlink V2MO
フェーズステータス In Orbit
所有者/国 SPXS/US

Most Searched